Flag for Norway Weather past 2 weeks in Ørsta, Norway

Now
37 °F

Drizzle. Broken clouds.


Feels Like: 31 °F
Forecast: 36 / 42 °F
Wind: 9 mph from Southwest

Location: Alesund / Vigra

Current Time: Apr 25, 2015 at 10:07:31 PM

Latest Report: Apr 25, 2015 at 9:20 PM


Visibility: N/A

Pressure: 29.18 "Hg

Humidity: 93%

Dew point: 36 °F

Location of ØrstaLocation

Historic Weather in Ørsta — Graph

°F

Ørsta temperature yesterday

Maximum temperature yesterday: 43 °F (at 3:20 PM)
Minimum temperature yesterday: 34 °F (at 10:20 AM)
Average temperature yesterday: 38 °F

Past Weeks' High & Low Weather Summary

 TemperatureHumidityPressure
High59 °F (Apr 11, 1:50 PM)100% (Apr 18, 4:20 AM)30.51 "Hg (Apr 18, 4:20 AM)
Low30 °F (Apr 21, 5:50 AM)42% (Apr 11, 1:50 PM)29.15 "Hg (Apr 25, 7:50 PM)
Average42 °F78%29.93 "Hg
* Reported Apr 10 8:20 PM — Apr 25 8:50 PM, Ørsta, Weather by CustomWeather, © 2015

Note: Actual official high and low records may vary slightly from our data, if they occured in-between our weather recording intervals... More about our weather records

Advertising

Ørsta weather history for previous 24 hours

 ConditionsComfort  
Time TempWeatherWind HumidityBarometerVisibility
8:50 PM
Sat, Apr 25
37 °FDrizzle. Partly sunny.5 mph87%29.18 "HgN/A
8:20 PM37 °FDrizzle. Broken clouds.1 mph87%29.18 "HgN/A
7:50 PM37 °FDrizzle. Partly sunny.5 mph93%29.15 "Hg6 mi
7:20 PM39 °FDrizzle. Partly sunny.9 mph87%29.18 "HgN/A
6:50 PM39 °FDrizzle. Partly sunny.10 mph93%29.18 "HgN/A
5:50 PM39 °FDrizzle. Partly sunny.12 mph93%29.18 "HgN/A
5:20 PM39 °FDrizzle. Partly sunny.10 mph93%29.21 "HgN/A
4:50 PM39 °FDrizzle. Broken clouds.12 mph93%29.21 "HgN/A
4:20 PM39 °FDrizzle. Broken clouds.13 mph93%29.24 "HgN/A
3:50 PM39 °FDrizzle. Broken clouds.12 mph87%29.27 "HgN/A
3:20 PM41 °FBroken clouds.12 mph87%29.27 "HgN/A
2:50 PM41 °FPartly sunny.13 mph87%29.30 "HgN/A
2:20 PM41 °FDrizzle. Broken clouds.12 mph87%29.30 "HgN/A
1:50 PM39 °FBroken clouds.12 mph93%29.33 "HgN/A
1:20 PM41 °FBroken clouds.12 mph87%29.33 "HgN/A
12:50 PM39 °FBroken clouds.9 mph87%29.36 "HgN/A
12:20 PM39 °FDrizzle. Broken clouds.9 mph87%29.36 "HgN/A
11:50 AM39 °FBroken clouds.9 mph87%29.39 "HgN/A
11:20 AM39 °FBroken clouds.8 mph87%29.39 "HgN/A
10:50 AM39 °FBroken clouds.7 mph87%29.39 "HgN/A
10:20 AM39 °FPartly sunny.5 mph87%29.39 "HgN/A
9:50 AM39 °FPartly sunny.3 mph87%29.42 "HgN/A
9:20 AM37 °FBroken clouds.5 mph93%29.42 "HgN/A
8:50 AM37 °FDrizzle. Overcast.8 mph93%29.42 "HgN/A
7:50 AM37 °FDrizzle. Overcast.10 mph93%29.42 "HgN/A
7:20 AM36 °FMore clouds than sun.13 mph93%29.42 "HgN/A
6:50 AM36 °FDrizzle. Broken clouds.10 mph93%29.42 "HgN/A
6:20 AM36 °FPartly cloudy.10 mph93%29.45 "HgN/A
5:50 AM36 °FLight rain. Partly cloudy.14 mph93%29.45 "HgN/A
5:20 AM36 °FPassing clouds.14 mph93%29.45 "HgN/A
4:50 AM36 °FPassing clouds.15 mph93%29.45 "HgN/A
4:20 AM36 °FDrizzle. Overcast.14 mph93%29.47 "HgN/A
3:50 AM36 °FMostly cloudy.14 mph93%29.47 "HgN/A
3:20 AM36 °FFog.15 mph93%29.47 "HgN/A
2:50 AM36 °FOvercast.14 mph93%29.47 "HgN/A
2:20 AM37 °FPassing clouds.15 mph87%29.47 "HgN/A
1:20 AM37 °FPassing clouds.16 mph81%29.50 "HgN/A
12:50 AM39 °FOvercast.17 mph70%29.50 "HgN/A
12:20 AM39 °FOvercast.9 mph70%29.50 "HgN/A
11:50 PM
Fri, Apr 24
39 °FPassing clouds.12 mph61%29.50 "HgN/A
11:20 PM39 °FPartly cloudy.8 mph70%29.50 "HgN/A
10:50 PM37 °FPassing clouds.13 mph81%29.53 "HgN/A
10:20 PM37 °FBroken clouds.15 mph87%29.53 "HgN/A
Weather by CustomWeather, © 2015

See weather overviewHow to use our weather pages